Orbital Elements at Epoch 2459000.5 (2020-May-31.0) TDB
Reference: JPL 17 (heliocentric ecliptic J2000)
Element | Value | Uncertainty (1-sigma) | Units |
e | .1483641139546041 | 4.9553e-08 | |
a | 2.421388970551873 | 1.1612e-08 | au |
q | 2.062141741396493 | 1.1868e-07 | au |
i | 5.333272346542854 | 5.9885e-06 | deg |
node | 180.8411753754342 | 4.4455e-05 | deg |
peri | 128.8520917492978 | 4.7649e-05 | deg |
M | 207.1352823903641 | 1.907e-05 | deg |
tp | 2459584.886297606399 (2022-Jan-05.38629761) | 7.5099e-05 | TDB |
period | 1376.243455180676 3.77 | 9.9002e-06 2.711e-08 | d yr |
n | .2615816254346789 | 1.8817e-09 | deg/d |
Q | 2.780636199707252 | 1.3335e-08 | au |
|
| | Orbit Determination Parameters
Additional Information
|